Year,Month,Day,Hour,Minute,Value (Times are PST for temperature in C)
2015,08,04,00,00,17.60
2015,08,04,00,01,17.60
2015,08,04,00,02,17.60
2015,08,04,00,03,17.60
2015,08,04,00,04,17.50
2015,08,04,00,05,17.50
2015,08,04,00,06,17.40
2015,08,04,00,07,17.40
2015,08,04,00,08,17.40
2015,08,04,00,09,17.30
2015,08,04,00,10,17.30
2015,08,04,00,11,17.30
2015,08,04,00,12,17.30
2015,08,04,00,13,17.30
2015,08,04,00,14,17.20
2015,08,04,00,15,17.20
2015,08,04,00,16,17.20
2015,08,04,00,17,17.20
2015,08,04,00,18,17.20
2015,08,04,00,19,17.20
2015,08,04,00,20,17.20
2015,08,04,00,21,17.10
2015,08,04,00,22,17.10
2015,08,04,00,23,17.00
2015,08,04,00,24,17.00
2015,08,04,00,25,16.90
2015,08,04,00,26,16.90
2015,08,04,00,27,16.90
2015,08,04,00,28,16.80
2015,08,04,00,29,16.80
2015,08,04,00,30,16.80
2015,08,04,00,31,16.70
2015,08,04,00,32,16.70
2015,08,04,00,33,16.60
2015,08,04,00,34,16.60
2015,08,04,00,35,16.50
2015,08,04,00,36,16.50
2015,08,04,00,37,16.40
2015,08,04,00,38,16.40
2015,08,04,00,39,16.30
2015,08,04,00,40,16.20
2015,08,04,00,41,16.20
2015,08,04,00,42,16.10
2015,08,04,00,43,16.10
2015,08,04,00,44,16.00
2015,08,04,00,45,16.00
2015,08,04,00,46,15.90
2015,08,04,00,47,15.90
2015,08,04,00,48,15.90
2015,08,04,00,49,15.80
2015,08,04,00,50,15.80
2015,08,04,00,51,15.80
2015,08,04,00,52,15.80
2015,08,04,00,53,15.80
2015,08,04,00,54,15.80
2015,08,04,00,55,15.80
2015,08,04,00,56,15.80
2015,08,04,00,57,15.80
2015,08,04,00,58,15.80
2015,08,04,00,59,15.80
2015,08,04,01,00,15.70
2015,08,04,01,01,15.70
2015,08,04,01,02,15.70
2015,08,04,01,03,15.60
2015,08,04,01,04,15.60
2015,08,04,01,05,15.60
2015,08,04,01,06,15.70
2015,08,04,01,07,15.70
2015,08,04,01,08,15.70
2015,08,04,01,09,15.70
2015,08,04,01,10,15.80
2015,08,04,01,11,15.80
2015,08,04,01,12,15.80
2015,08,04,01,13,15.90
2015,08,04,01,14,15.90
2015,08,04,01,15,15.90
2015,08,04,01,16,15.90
2015,08,04,01,17,15.90
2015,08,04,01,18,15.80
2015,08,04,01,19,15.80
2015,08,04,01,20,15.70
2015,08,04,01,21,15.70
2015,08,04,01,22,15.60
2015,08,04,01,23,15.60
2015,08,04,01,24,15.50
2015,08,04,01,25,15.50
2015,08,04,01,26,15.40
2015,08,04,01,27,15.40
2015,08,04,01,28,15.30
2015,08,04,01,29,15.30
2015,08,04,01,30,15.30
2015,08,04,01,31,15.30
2015,08,04,01,32,15.30
2015,08,04,01,33,15.30
2015,08,04,01,34,15.30
2015,08,04,01,35,15.30
2015,08,04,01,36,15.30
2015,08,04,01,37,15.30
2015,08,04,01,38,15.30
2015,08,04,01,39,15.30
2015,08,04,01,40,15.20
2015,08,04,01,41,15.20
2015,08,04,01,42,15.20
2015,08,04,01,43,15.10
2015,08,04,01,44,15.10
2015,08,04,01,45,15.00
2015,08,04,01,46,15.00
2015,08,04,01,47,14.90
2015,08,04,01,48,14.90
2015,08,04,01,49,14.80
2015,08,04,01,50,14.80
2015,08,04,01,51,14.80
2015,08,04,01,52,14.70
2015,08,04,01,53,14.70
2015,08,04,01,54,14.70
2015,08,04,01,55,14.70
2015,08,04,01,56,14.70
2015,08,04,01,57,14.70
2015,08,04,01,58,14.70
2015,08,04,01,59,14.70
2015,08,04,02,00,14.70
2015,08,04,02,01,14.70
2015,08,04,02,02,14.70
2015,08,04,02,03,14.60
2015,08,04,02,04,14.60
2015,08,04,02,05,14.60
2015,08,04,02,06,14.60
2015,08,04,02,07,14.60
2015,08,04,02,08,14.70
2015,08,04,02,09,14.70
2015,08,04,02,10,14.70
2015,08,04,02,11,14.70
2015,08,04,02,12,14.70
2015,08,04,02,13,14.70
2015,08,04,02,14,14.80
2015,08,04,02,15,14.80
2015,08,04,02,16,14.80
2015,08,04,02,17,14.80
2015,08,04,02,18,14.80
2015,08,04,02,19,14.80
2015,08,04,02,20,14.80
2015,08,04,02,21,14.80
2015,08,04,02,22,14.80
2015,08,04,02,23,14.90
2015,08,04,02,24,14.90
2015,08,04,02,25,14.90
2015,08,04,02,26,14.90
2015,08,04,02,27,14.90
2015,08,04,02,28,14.90
2015,08,04,02,29,14.90
2015,08,04,02,30,14.90
2015,08,04,02,31,14.80
2015,08,04,02,32,14.80
2015,08,04,02,33,14.80
2015,08,04,02,34,14.70
2015,08,04,02,35,14.70
2015,08,04,02,36,14.70
2015,08,04,02,37,14.80
2015,08,04,02,38,14.90
2015,08,04,02,39,15.00
2015,08,04,02,40,15.10
2015,08,04,02,41,15.20
2015,08,04,02,42,15.30
2015,08,04,02,43,15.40
2015,08,04,02,44,15.50
2015,08,04,02,45,15.50
2015,08,04,02,46,15.60
2015,08,04,02,47,15.70
2015,08,04,02,48,15.70
2015,08,04,02,49,15.80
2015,08,04,02,50,15.80
2015,08,04,02,51,15.80
2015,08,04,02,52,15.80
2015,08,04,02,53,15.80
2015,08,04,02,54,15.80
2015,08,04,02,55,15.80
2015,08,04,02,56,15.70
2015,08,04,02,57,15.70
2015,08,04,02,58,15.70
2015,08,04,02,59,15.60
2015,08,04,03,00,15.60
2015,08,04,03,01,15.60
2015,08,04,03,02,15.50
2015,08,04,03,03,15.50
2015,08,04,03,04,15.40
2015,08,04,03,05,15.30
2015,08,04,03,06,15.30
2015,08,04,03,07,15.20
2015,08,04,03,08,15.20
2015,08,04,03,09,15.10
2015,08,04,03,10,15.10
2015,08,04,03,11,15.20
2015,08,04,03,12,15.20
2015,08,04,03,13,15.20
2015,08,04,03,14,15.20
2015,08,04,03,15,15.20
2015,08,04,03,16,15.20
2015,08,04,03,17,15.20
2015,08,04,03,18,15.20
2015,08,04,03,19,15.20
2015,08,04,03,20,15.20
2015,08,04,03,21,15.10
2015,08,04,03,22,15.10
2015,08,04,03,23,15.10
2015,08,04,03,24,15.10
2015,08,04,03,25,15.10
2015,08,04,03,26,15.10
2015,08,04,03,27,15.10
2015,08,04,03,28,15.10
2015,08,04,03,29,15.00
2015,08,04,03,30,15.00
2015,08,04,03,31,14.90
2015,08,04,03,32,14.90
2015,08,04,03,33,14.90
2015,08,04,03,34,14.80
2015,08,04,03,35,14.80
2015,08,04,03,36,14.70
2015,08,04,03,37,14.60
2015,08,04,03,38,14.60
2015,08,04,03,39,14.50
2015,08,04,03,40,14.50
2015,08,04,03,41,14.40
2015,08,04,03,42,14.40
2015,08,04,03,43,14.40
2015,08,04,03,44,14.30
2015,08,04,03,45,14.30
2015,08,04,03,46,14.30
2015,08,04,03,47,14.30
2015,08,04,03,48,14.30
2015,08,04,03,49,14.20
2015,08,04,03,50,14.20
2015,08,04,03,51,14.20
2015,08,04,03,52,14.20
2015,08,04,03,53,14.20
2015,08,04,03,54,14.10
2015,08,04,03,55,14.10
2015,08,04,03,56,14.00
2015,08,04,03,57,14.00
2015,08,04,03,58,13.90
2015,08,04,03,59,13.90
2015,08,04,04,00,13.90
2015,08,04,04,01,13.80
2015,08,04,04,02,13.80
2015,08,04,04,03,13.80
2015,08,04,04,04,13.80
2015,08,04,04,05,13.70
2015,08,04,04,06,13.80
2015,08,04,04,07,13.80
2015,08,04,04,08,13.80
2015,08,04,04,09,13.80
2015,08,04,04,10,13.80
2015,08,04,04,11,13.80
2015,08,04,04,12,13.80
2015,08,04,04,13,13.80
2015,08,04,04,14,13.80
2015,08,04,04,15,13.90
2015,08,04,04,16,13.90
2015,08,04,04,17,14.00
2015,08,04,04,18,14.00
2015,08,04,04,19,14.10
2015,08,04,04,20,14.10
2015,08,04,04,21,14.10
2015,08,04,04,22,14.10
2015,08,04,04,23,14.10
2015,08,04,04,24,14.10
2015,08,04,04,25,14.10
2015,08,04,04,26,14.10
2015,08,04,04,27,14.10
2015,08,04,04,28,14.00
2015,08,04,04,29,14.00
2015,08,04,04,30,14.00
2015,08,04,04,31,14.00
2015,08,04,04,32,13.90
2015,08,04,04,33,13.90
2015,08,04,04,34,13.80
2015,08,04,04,35,13.80
2015,08,04,04,36,13.80
2015,08,04,04,37,13.70
2015,08,04,04,38,13.70
2015,08,04,04,39,13.70
2015,08,04,04,40,13.70
2015,08,04,04,41,13.70
2015,08,04,04,42,13.70
2015,08,04,04,43,13.70
2015,08,04,04,44,13.80
2015,08,04,04,45,13.80
2015,08,04,04,46,13.80
2015,08,04,04,47,13.80
2015,08,04,04,48,13.80
2015,08,04,04,49,13.90
2015,08,04,04,50,13.90
2015,08,04,04,51,13.90
2015,08,04,04,52,13.90
2015,08,04,04,53,13.90
2015,08,04,04,54,14.00
2015,08,04,04,55,14.00
2015,08,04,04,56,14.00
2015,08,04,04,57,14.00
2015,08,04,04,58,14.00
2015,08,04,04,59,14.00
2015,08,04,05,00,14.10
2015,08,04,05,01,14.10
2015,08,04,05,02,14.10
2015,08,04,05,03,14.20
2015,08,04,05,04,14.20
2015,08,04,05,05,14.30
2015,08,04,05,06,14.30
2015,08,04,05,07,14.30
2015,08,04,05,08,14.30
2015,08,04,05,09,14.30
2015,08,04,05,10,14.30
2015,08,04,05,11,14.30
2015,08,04,05,12,14.30
2015,08,04,05,13,14.30
2015,08,04,05,14,14.30
2015,08,04,05,15,14.30
2015,08,04,05,16,14.30
2015,08,04,05,17,14.40
2015,08,04,05,18,14.40
2015,08,04,05,19,14.40
2015,08,04,05,20,14.40
2015,08,04,05,21,14.40
2015,08,04,05,22,14.40
2015,08,04,05,23,14.40
2015,08,04,05,24,14.40
2015,08,04,05,25,14.40
2015,08,04,05,26,14.40
2015,08,04,05,27,14.40
2015,08,04,05,28,14.40
2015,08,04,05,29,14.30
2015,08,04,05,30,14.30
2015,08,04,05,31,14.30
2015,08,04,05,32,14.40
2015,08,04,05,33,14.40
2015,08,04,05,34,14.30
2015,08,04,05,35,14.30
2015,08,04,05,36,14.30
2015,08,04,05,37,14.30
2015,08,04,05,38,14.30
2015,08,04,05,39,14.30
2015,08,04,05,40,14.30
2015,08,04,05,41,14.30
2015,08,04,05,42,14.40
2015,08,04,05,43,14.40
2015,08,04,05,44,14.40
2015,08,04,05,45,14.40
2015,08,04,05,46,14.40
2015,08,04,05,47,14.40
2015,08,04,05,48,14.40
2015,08,04,05,49,14.40
2015,08,04,05,50,14.40
2015,08,04,05,51,14.50
2015,08,04,05,52,14.50
2015,08,04,05,53,14.60
2015,08,04,05,54,14.60
2015,08,04,05,55,14.60
2015,08,04,05,56,14.50
2015,08,04,05,57,14.50
2015,08,04,05,58,14.50
2015,08,04,05,59,14.50
2015,08,04,06,00,14.50
2015,08,04,06,01,14.50
2015,08,04,06,02,14.40
2015,08,04,06,03,14.40
2015,08,04,06,04,14.40
2015,08,04,06,05,14.40
2015,08,04,06,06,14.40
2015,08,04,06,07,14.30
2015,08,04,06,08,14.30
2015,08,04,06,09,14.30
2015,08,04,06,10,14.30
2015,08,04,06,11,14.30
2015,08,04,06,12,14.30
2015,08,04,06,13,14.20
2015,08,04,06,14,14.20
2015,08,04,06,15,14.20
2015,08,04,06,16,14.30
2015,08,04,06,17,14.30
2015,08,04,06,18,14.30
2015,08,04,06,19,14.30
2015,08,04,06,20,14.30
2015,08,04,06,21,14.30
2015,08,04,06,22,14.30
2015,08,04,06,23,14.40
2015,08,04,06,24,14.40
2015,08,04,06,25,14.40
2015,08,04,06,26,14.40
2015,08,04,06,27,14.40
2015,08,04,06,28,14.40
2015,08,04,06,29,14.40
2015,08,04,06,30,14.50
2015,08,04,06,31,14.50
2015,08,04,06,32,14.50
2015,08,04,06,33,14.60
2015,08,04,06,34,14.60
2015,08,04,06,35,14.60
2015,08,04,06,36,14.60
2015,08,04,06,37,14.70
2015,08,04,06,38,14.70
2015,08,04,06,39,14.70
2015,08,04,06,40,14.80
2015,08,04,06,41,14.80
2015,08,04,06,42,14.80
2015,08,04,06,43,14.80
2015,08,04,06,44,14.80
2015,08,04,06,45,14.80
2015,08,04,06,46,14.80
2015,08,04,06,47,14.90
2015,08,04,06,48,14.90
2015,08,04,06,49,14.90
2015,08,04,06,50,14.90
2015,08,04,06,51,14.90
2015,08,04,06,52,15.00
2015,08,04,06,53,15.00
2015,08,04,06,54,15.00
2015,08,04,06,55,15.10
2015,08,04,06,56,15.10
2015,08,04,06,57,15.10
2015,08,04,06,58,15.20
2015,08,04,06,59,15.20
2015,08,04,07,00,15.20
2015,08,04,07,01,15.20
2015,08,04,07,02,15.30
2015,08,04,07,03,15.30
2015,08,04,07,04,15.30
2015,08,04,07,05,15.30
2015,08,04,07,06,15.40
2015,08,04,07,07,15.40
2015,08,04,07,08,15.40
2015,08,04,07,09,15.50
2015,08,04,07,10,15.50
2015,08,04,07,11,15.60
2015,08,04,07,12,15.60
2015,08,04,07,13,15.60
2015,08,04,07,14,15.60
2015,08,04,07,15,15.70
2015,08,04,07,16,15.70
2015,08,04,07,17,15.70
2015,08,04,07,18,15.70
2015,08,04,07,19,15.70
2015,08,04,07,20,15.70
2015,08,04,07,21,15.70
2015,08,04,07,22,15.80
2015,08,04,07,23,15.80
2015,08,04,07,24,15.80
2015,08,04,07,25,15.80
2015,08,04,07,26,15.80
2015,08,04,07,27,15.80
2015,08,04,07,28,15.80
2015,08,04,07,29,15.80
2015,08,04,07,30,15.80
2015,08,04,07,31,15.90
2015,08,04,07,32,15.90
2015,08,04,07,33,15.90
2015,08,04,07,34,15.90
2015,08,04,07,35,15.90
2015,08,04,07,36,15.90
2015,08,04,07,37,15.90
2015,08,04,07,38,16.00
2015,08,04,07,39,16.00
2015,08,04,07,40,16.00
2015,08,04,07,41,16.00
2015,08,04,07,42,16.10
2015,08,04,07,43,16.10
2015,08,04,07,44,16.10
2015,08,04,07,45,16.10
2015,08,04,07,46,16.20
2015,08,04,07,47,16.20
2015,08,04,07,48,16.20
2015,08,04,07,49,16.20
2015,08,04,07,50,16.20
2015,08,04,07,51,16.20
2015,08,04,07,52,16.20
2015,08,04,07,53,16.20
2015,08,04,07,54,16.30
2015,08,04,07,55,16.20
2015,08,04,07,56,16.30
2015,08,04,07,57,16.30
2015,08,04,07,58,16.30
2015,08,04,07,59,16.30
2015,08,04,08,00,16.30
2015,08,04,08,01,16.40
2015,08,04,08,02,16.40
2015,08,04,08,03,16.40
2015,08,04,08,04,16.40
2015,08,04,08,05,16.40
2015,08,04,08,06,16.40
2015,08,04,08,07,16.40
2015,08,04,08,08,16.50
2015,08,04,08,09,16.40
2015,08,04,08,10,16.40
2015,08,04,08,11,16.40
2015,08,04,08,12,16.50
2015,08,04,08,13,16.50
2015,08,04,08,14,16.50
2015,08,04,08,15,16.40
2015,08,04,08,16,16.40
2015,08,04,08,17,16.40
2015,08,04,08,18,16.40
2015,08,04,08,19,16.40
2015,08,04,08,20,16.40
2015,08,04,08,21,16.40
2015,08,04,08,22,16.50
2015,08,04,08,23,16.50
2015,08,04,08,24,16.50
2015,08,04,08,25,16.50
2015,08,04,08,26,16.60
2015,08,04,08,27,16.60
2015,08,04,08,28,16.60
2015,08,04,08,29,16.60
2015,08,04,08,30,16.60
2015,08,04,08,31,16.60
2015,08,04,08,32,16.60
2015,08,04,08,33,16.60
2015,08,04,08,34,16.60
2015,08,04,08,35,16.70
2015,08,04,08,36,16.70
2015,08,04,08,37,16.70
2015,08,04,08,38,16.70
2015,08,04,08,39,16.70
2015,08,04,08,40,16.70
2015,08,04,08,41,16.70
2015,08,04,08,42,16.70
2015,08,04,08,43,16.70
2015,08,04,08,44,16.80
2015,08,04,08,45,16.80
2015,08,04,08,46,16.90
2015,08,04,08,47,16.90
2015,08,04,08,48,16.90
2015,08,04,08,49,17.00
2015,08,04,08,50,17.00
2015,08,04,08,51,17.00
2015,08,04,08,52,17.10
2015,08,04,08,53,17.00
2015,08,04,08,54,17.00
2015,08,04,08,55,17.00
2015,08,04,08,56,17.00
2015,08,04,08,57,17.10
2015,08,04,08,58,17.10
2015,08,04,08,59,17.10
2015,08,04,09,00,17.20
2015,08,04,09,01,17.20
2015,08,04,09,02,17.20
2015,08,04,09,03,17.20
2015,08,04,09,04,17.30
2015,08,04,09,05,17.30
2015,08,04,09,06,17.40
2015,08,04,09,07,17.40
2015,08,04,09,08,17.50
2015,08,04,09,09,17.50
2015,08,04,09,10,17.50
2015,08,04,09,11,17.50
2015,08,04,09,12,17.40
2015,08,04,09,13,17.40
2015,08,04,09,14,17.50
2015,08,04,09,15,17.50
2015,08,04,09,16,17.40
2015,08,04,09,17,17.40
2015,08,04,09,18,17.50
2015,08,04,09,19,17.50
2015,08,04,09,20,17.50
2015,08,04,09,21,17.50
2015,08,04,09,22,17.50
2015,08,04,09,23,17.50
2015,08,04,09,24,17.50
2015,08,04,09,25,17.50
2015,08,04,09,26,17.50
2015,08,04,09,27,17.40
2015,08,04,09,28,17.40
2015,08,04,09,29,17.40
2015,08,04,09,30,17.40
2015,08,04,09,31,17.40
2015,08,04,09,32,17.50
2015,08,04,09,33,17.50
2015,08,04,09,34,17.50
2015,08,04,09,35,17.50
2015,08,04,09,36,17.50
2015,08,04,09,37,17.50
2015,08,04,09,38,17.50
2015,08,04,09,39,17.60
2015,08,04,09,40,17.70
2015,08,04,09,41,17.70
2015,08,04,09,42,17.70
2015,08,04,09,43,17.70
2015,08,04,09,44,17.70
2015,08,04,09,45,17.70
2015,08,04,09,46,17.70
2015,08,04,09,47,17.70
2015,08,04,09,48,17.80
2015,08,04,09,49,17.80
2015,08,04,09,50,17.90
2015,08,04,09,51,17.90
2015,08,04,09,52,17.90
2015,08,04,09,53,17.90
2015,08,04,09,54,17.90
2015,08,04,09,55,18.00
2015,08,04,09,56,18.00
2015,08,04,09,57,18.10
2015,08,04,09,58,18.10
2015,08,04,09,59,18.10
2015,08,04,10,00,18.20
2015,08,04,10,01,18.20
2015,08,04,10,02,18.20
2015,08,04,10,03,18.20
2015,08,04,10,04,18.20
2015,08,04,10,05,18.20
2015,08,04,10,06,18.30
2015,08,04,10,07,18.30
2015,08,04,10,08,18.30
2015,08,04,10,09,18.40
2015,08,04,10,10,18.40
2015,08,04,10,11,18.40
2015,08,04,10,12,18.40
2015,08,04,10,13,18.40
2015,08,04,10,14,18.50
2015,08,04,10,15,18.50
2015,08,04,10,16,18.50
2015,08,04,10,17,18.50
2015,08,04,10,18,18.50
2015,08,04,10,19,18.50
2015,08,04,10,20,18.50
2015,08,04,10,21,18.50
2015,08,04,10,22,18.60
2015,08,04,10,23,18.70
2015,08,04,10,24,18.70
2015,08,04,10,25,18.80
2015,08,04,10,26,18.80
2015,08,04,10,27,18.70
2015,08,04,10,28,18.60
2015,08,04,10,29,18.50
2015,08,04,10,30,18.50
2015,08,04,10,31,18.50
2015,08,04,10,32,18.60
2015,08,04,10,33,18.70
2015,08,04,10,34,18.70
2015,08,04,10,35,18.70
2015,08,04,10,36,18.70
2015,08,04,10,37,18.70
2015,08,04,10,38,18.80
2015,08,04,10,39,18.80
2015,08,04,10,40,18.80
2015,08,04,10,41,18.80
2015,08,04,10,42,18.80
2015,08,04,10,43,18.90
2015,08,04,10,44,18.90
2015,08,04,10,45,18.90
2015,08,04,10,46,18.90
2015,08,04,10,47,18.90
2015,08,04,10,48,18.90
2015,08,04,10,49,18.90
2015,08,04,10,50,18.90
2015,08,04,10,51,18.90
2015,08,04,10,52,18.90
2015,08,04,10,53,18.90
2015,08,04,10,54,18.90
2015,08,04,10,55,18.90
2015,08,04,10,56,18.90
2015,08,04,10,57,19.00
2015,08,04,10,58,19.00
2015,08,04,10,59,19.00
2015,08,04,11,00,19.00
2015,08,04,11,01,18.90
2015,08,04,11,02,18.90
2015,08,04,11,03,18.90
2015,08,04,11,04,18.80
2015,08,04,11,05,18.80
2015,08,04,11,06,18.80
2015,08,04,11,07,18.80
2015,08,04,11,08,18.80
2015,08,04,11,09,18.80
2015,08,04,11,10,18.70
2015,08,04,11,11,18.70
2015,08,04,11,12,18.70
2015,08,04,11,13,18.60
2015,08,04,11,14,18.70
2015,08,04,11,15,18.70
2015,08,04,11,16,18.70
2015,08,04,11,17,18.70
2015,08,04,11,18,18.70
2015,08,04,11,19,18.70
2015,08,04,11,20,18.70
2015,08,04,11,21,18.70
2015,08,04,11,22,18.70
2015,08,04,11,23,18.70
2015,08,04,11,24,18.70
2015,08,04,11,25,18.80
2015,08,04,11,26,18.80
2015,08,04,11,27,18.80
2015,08,04,11,28,18.80
2015,08,04,11,29,18.80
2015,08,04,11,30,18.90
2015,08,04,11,31,18.90
2015,08,04,11,32,18.90
2015,08,04,11,33,18.90
2015,08,04,11,34,18.90
2015,08,04,11,35,18.90
2015,08,04,11,36,18.90
2015,08,04,11,37,18.90
2015,08,04,11,38,19.00
2015,08,04,11,39,19.00
2015,08,04,11,40,19.00
2015,08,04,11,41,19.00
2015,08,04,11,42,18.90
2015,08,04,11,43,18.90
2015,08,04,11,44,18.80
2015,08,04,11,45,18.80
2015,08,04,11,46,18.90
2015,08,04,11,47,18.90
2015,08,04,11,48,18.90
2015,08,04,11,49,18.90
2015,08,04,11,50,18.90
2015,08,04,11,51,18.90
2015,08,04,11,52,18.90
2015,08,04,11,53,19.00
2015,08,04,11,54,19.10
2015,08,04,11,55,19.20
2015,08,04,11,56,19.20
2015,08,04,11,57,19.30
2015,08,04,11,58,19.40
2015,08,04,11,59,19.30
2015,08,04,12,00,19.30
2015,08,04,12,01,19.30
2015,08,04,12,02,19.30
2015,08,04,12,03,19.20
2015,08,04,12,04,19.20
2015,08,04,12,05,19.20
2015,08,04,12,06,19.20
2015,08,04,12,07,19.10
2015,08,04,12,08,19.10
2015,08,04,12,09,19.10
2015,08,04,12,10,19.20
2015,08,04,12,11,19.30
2015,08,04,12,12,19.30
2015,08,04,12,13,19.30
2015,08,04,12,14,19.30
2015,08,04,12,15,19.30
2015,08,04,12,16,19.30
2015,08,04,12,17,19.30
2015,08,04,12,18,19.30
2015,08,04,12,19,19.30
2015,08,04,12,20,19.30
2015,08,04,12,21,19.30
2015,08,04,12,22,19.30
2015,08,04,12,23,19.20
2015,08,04,12,24,19.30
2015,08,04,12,25,19.30
2015,08,04,12,26,19.40
2015,08,04,12,27,19.50
2015,08,04,12,28,19.50
2015,08,04,12,29,19.60
2015,08,04,12,30,19.60
2015,08,04,12,31,19.70
2015,08,04,12,32,19.70
2015,08,04,12,33,19.80
2015,08,04,12,34,19.90
2015,08,04,12,35,19.90
2015,08,04,12,36,20.00
2015,08,04,12,37,20.00
2015,08,04,12,38,20.00
2015,08,04,12,39,20.10
2015,08,04,12,40,20.10
2015,08,04,12,41,20.00
2015,08,04,12,42,19.90
2015,08,04,12,43,19.90
2015,08,04,12,44,19.90
2015,08,04,12,45,19.90
2015,08,04,12,46,19.90
2015,08,04,12,47,19.90
2015,08,04,12,48,20.00
2015,08,04,12,49,20.00
2015,08,04,12,50,20.00
2015,08,04,12,51,20.00
2015,08,04,12,52,20.10
2015,08,04,12,53,20.00
2015,08,04,12,54,20.00
2015,08,04,12,55,20.00
2015,08,04,12,56,20.00
2015,08,04,12,57,20.10
2015,08,04,12,58,20.10
2015,08,04,12,59,20.20
2015,08,04,13,00,20.30
2015,08,04,13,01,20.40
2015,08,04,13,02,20.50
2015,08,04,13,03,20.60
2015,08,04,13,04,20.70
2015,08,04,13,05,20.80
2015,08,04,13,06,20.80
2015,08,04,13,07,20.80
2015,08,04,13,08,20.80
2015,08,04,13,09,20.80
2015,08,04,13,10,20.80
2015,08,04,13,11,20.80
2015,08,04,13,12,20.80
2015,08,04,13,13,20.70
2015,08,04,13,14,20.70
2015,08,04,13,15,20.70
2015,08,04,13,16,20.80
2015,08,04,13,17,20.90
2015,08,04,13,18,20.90
2015,08,04,13,19,21.00
2015,08,04,13,20,21.00
2015,08,04,13,21,21.10
2015,08,04,13,22,21.20
2015,08,04,13,23,21.30
2015,08,04,13,24,21.30
2015,08,04,13,25,21.30
2015,08,04,13,26,21.20
2015,08,04,13,27,21.10
2015,08,04,13,28,21.10
2015,08,04,13,29,21.10
2015,08,04,13,30,21.20
2015,08,04,13,31,21.20
2015,08,04,13,32,21.20
2015,08,04,13,33,21.20
2015,08,04,13,34,21.10
2015,08,04,13,35,21.20
2015,08,04,13,36,21.30
2015,08,04,13,37,21.30
2015,08,04,13,38,21.40
2015,08,04,13,39,21.40
2015,08,04,13,40,21.50
2015,08,04,13,41,21.60
2015,08,04,13,42,21.60
2015,08,04,13,43,21.70
2015,08,04,13,44,21.80
2015,08,04,13,45,21.90
2015,08,04,13,46,21.90
2015,08,04,13,47,22.00
2015,08,04,13,48,22.00
2015,08,04,13,49,22.10
2015,08,04,13,50,22.10
2015,08,04,13,51,22.20
2015,08,04,13,52,22.40
2015,08,04,13,53,22.50
2015,08,04,13,54,22.50
2015,08,04,13,55,22.50
2015,08,04,13,56,22.50
2015,08,04,13,57,22.40
2015,08,04,13,58,22.20
2015,08,04,13,59,22.10
2015,08,04,14,00,22.00
2015,08,04,14,01,22.00
2015,08,04,14,02,22.00
2015,08,04,14,03,22.00
2015,08,04,14,04,22.00
2015,08,04,14,05,22.00
2015,08,04,14,06,22.00
2015,08,04,14,07,22.10
2015,08,04,14,08,22.00
2015,08,04,14,09,22.00
2015,08,04,14,10,22.00
2015,08,04,14,11,22.00
2015,08,04,14,12,22.00
2015,08,04,14,13,22.10
2015,08,04,14,14,22.10
2015,08,04,14,15,22.10
2015,08,04,14,16,22.10
2015,08,04,14,17,22.00
2015,08,04,14,18,21.90
2015,08,04,14,19,21.90
2015,08,04,14,20,21.80
2015,08,04,14,21,21.80
2015,08,04,14,22,21.80
2015,08,04,14,23,21.90
2015,08,04,14,24,21.90
2015,08,04,14,25,21.90
2015,08,04,14,26,22.00
2015,08,04,14,27,22.10
2015,08,04,14,28,22.30
2015,08,04,14,29,22.50
2015,08,04,14,30,22.60
2015,08,04,14,31,22.70
2015,08,04,14,32,22.70
2015,08,04,14,33,22.70
2015,08,04,14,34,22.70
2015,08,04,14,35,22.60
2015,08,04,14,36,22.60
2015,08,04,14,37,22.70
2015,08,04,14,38,22.70
2015,08,04,14,39,22.70
2015,08,04,14,40,22.70
2015,08,04,14,41,22.70
2015,08,04,14,42,22.70
2015,08,04,14,43,22.70
2015,08,04,14,44,22.70
2015,08,04,14,45,22.70
2015,08,04,14,46,22.70
2015,08,04,14,47,22.70
2015,08,04,14,48,22.70
2015,08,04,14,49,22.70
2015,08,04,14,50,22.70
2015,08,04,14,51,22.60
2015,08,04,14,52,22.50
2015,08,04,14,53,22.40
2015,08,04,14,54,22.30
2015,08,04,14,55,22.30
2015,08,04,14,56,22.20
2015,08,04,14,57,22.30
2015,08,04,14,58,22.30
2015,08,04,14,59,22.40
2015,08,04,15,00,22.50
2015,08,04,15,01,22.60
2015,08,04,15,02,22.60
2015,08,04,15,03,22.70
2015,08,04,15,04,22.80
2015,08,04,15,05,22.80
2015,08,04,15,06,23.00
2015,08,04,15,07,23.10
2015,08,04,15,08,23.20
2015,08,04,15,09,23.30
2015,08,04,15,10,23.40
2015,08,04,15,11,23.40
2015,08,04,15,12,23.50
2015,08,04,15,13,23.50
2015,08,04,15,14,23.60
2015,08,04,15,15,23.60
2015,08,04,15,16,23.60
2015,08,04,15,17,23.50
2015,08,04,15,18,23.40
2015,08,04,15,19,23.40
2015,08,04,15,20,23.50
2015,08,04,15,21,23.50
2015,08,04,15,22,23.60
2015,08,04,15,23,23.60
2015,08,04,15,24,23.60
2015,08,04,15,25,23.60
2015,08,04,15,26,23.60
2015,08,04,15,27,23.60
2015,08,04,15,28,23.60
2015,08,04,15,29,23.60
2015,08,04,15,30,23.60
2015,08,04,15,31,23.60
2015,08,04,15,32,23.60
2015,08,04,15,33,23.60
2015,08,04,15,34,23.50
2015,08,04,15,35,23.50
2015,08,04,15,36,23.50
2015,08,04,15,37,23.40
2015,08,04,15,38,23.40
2015,08,04,15,39,23.40
2015,08,04,15,40,23.30
2015,08,04,15,41,23.20
2015,08,04,15,42,23.20
2015,08,04,15,43,23.10
2015,08,04,15,44,23.10
2015,08,04,15,45,23.00
2015,08,04,15,46,22.90
2015,08,04,15,47,22.90
2015,08,04,15,48,22.90
2015,08,04,15,49,23.00
2015,08,04,15,50,23.10
2015,08,04,15,51,23.20
2015,08,04,15,52,23.40
2015,08,04,15,53,23.50
2015,08,04,15,54,23.60
2015,08,04,15,55,23.70
2015,08,04,15,56,23.70
2015,08,04,15,57,23.90
2015,08,04,15,58,24.00
2015,08,04,15,59,24.20
2015,08,04,16,00,24.30
2015,08,04,16,01,24.30
2015,08,04,16,02,24.30
2015,08,04,16,03,24.30
2015,08,04,16,04,24.20
2015,08,04,16,05,24.10
2015,08,04,16,06,23.90
2015,08,04,16,07,23.80
2015,08,04,16,08,23.80
2015,08,04,16,09,23.70
2015,08,04,16,10,23.60
2015,08,04,16,11,23.60
2015,08,04,16,12,23.60
2015,08,04,16,13,23.60
2015,08,04,16,14,23.60
2015,08,04,16,15,23.60
2015,08,04,16,16,23.60
2015,08,04,16,17,23.50
2015,08,04,16,18,23.50
2015,08,04,16,19,23.50
2015,08,04,16,20,23.60
2015,08,04,16,21,23.60
2015,08,04,16,22,23.60
2015,08,04,16,23,23.60
2015,08,04,16,24,23.60
2015,08,04,16,25,23.60
2015,08,04,16,26,23.60
2015,08,04,16,27,23.60
2015,08,04,16,28,23.60
2015,08,04,16,29,23.70
2015,08,04,16,30,23.80
2015,08,04,16,31,23.80
2015,08,04,16,32,23.90
2015,08,04,16,33,23.90
2015,08,04,16,34,23.90
2015,08,04,16,35,23.90
2015,08,04,16,36,23.90
2015,08,04,16,37,23.80
2015,08,04,16,38,23.70
2015,08,04,16,39,23.60
2015,08,04,16,40,23.60
2015,08,04,16,41,23.60
2015,08,04,16,42,23.60
2015,08,04,16,43,23.60
2015,08,04,16,44,23.60
2015,08,04,16,45,23.70
2015,08,04,16,46,23.70
2015,08,04,16,47,23.60
2015,08,04,16,48,23.60
2015,08,04,16,49,23.60
2015,08,04,16,50,23.60
2015,08,04,16,51,23.60
2015,08,04,16,52,23.60
2015,08,04,16,53,23.60
2015,08,04,16,54,23.60
2015,08,04,16,55,23.50
2015,08,04,16,56,23.40
2015,08,04,16,57,23.30
2015,08,04,16,58,23.30
2015,08,04,16,59,23.40
2015,08,04,17,00,23.40
2015,08,04,17,01,23.50
2015,08,04,17,02,23.60
2015,08,04,17,03,23.50
2015,08,04,17,04,23.50
2015,08,04,17,05,23.40
2015,08,04,17,06,23.50
2015,08,04,17,07,23.60
2015,08,04,17,08,23.70
2015,08,04,17,09,23.80
2015,08,04,17,10,23.90
2015,08,04,17,11,24.00
2015,08,04,17,12,24.10
2015,08,04,17,13,24.10
2015,08,04,17,14,24.00
2015,08,04,17,15,24.00
2015,08,04,17,16,24.00
2015,08,04,17,17,24.00
2015,08,04,17,18,23.90
2015,08,04,17,19,23.90